User: anonymous   Login
Location: Poughquag
(41.6090°N, 73.6820°W)
Time: 09:30:34
(UTC-04:00)
Language:

Vanguard 2 Rocket - Orbit

View from above orbital plane
View from above orbital plane
View from above satellite
View from above satellite

Ground track
Ground track

The orbit data is extracted from the following two-line orbital elements,

1    12U 59001B   19286.95967766  .00000155  00000-0  71522-4 0  9991
2    12  32.9045 136.8548 1666650 214.7837 133.1776 11.44308872494198
Epoch (UTC): 13 October 2019 23:01:56
Eccentricity: 0.1666650
inclination: 32.9045°
perigee height: 554 km
apogee height: 3326 km
right ascension of ascending node: 136.8548°
argument of perigee: 214.7837°
revolutions per day: 11.44308872
mean anomaly at epoch: 133.1776°
orbit number at epoch: 49419

The dashed part of the orbit path shows where the satellite is in the earth's shadow,  

DLR